[[{"header":{"parameterUnit":"m.s-1","parameterCategory":1,"la1":30.2991,"la2":30.254,"lo1":-89.0895,"lo2":-89.0444,"dy":0.0017,"dx":0.0017,"nx":28,"ny":28,"refTime":"2025-03-21T21:00:00:Z","depth":0,"parameterNumber":2,"parameterNumberName":"U-component_of_WINDS"},"data":[0,0,0,0,0,0,0,0,0,0,0,0,0,0,0,0,0,0,0,0,0,0,0,0,0,0,0,0,0,0,0,0,0,0,0,0,0,0,0,0,0,0,0,0,0,0,0,0,0,0,0,0,0,0,0,0,0,0,0.4079,0.4081,0,0.4249,0.4251,0.4253,0.4318,0.4317,0.4317,0.4316,0.4493,0.4498,0.4503,0,0,0,0,0,0,0,0,0,0,0,0,0,0.3812,0.3817,0.4079,0.4081,0.4083,0.4248,0.4251,0.4253,0.4318,0.4317,0.4317,0.4316,0.4492,0.4498,0.4504,0,0,0,0,0,0,0,0,0,0,0,0,0,0.395,0.3818,0.4078,0.4135,0.4142,0.4248,0.4251,0.4254,0.4318,0.4317,0.4316,0.4316,0.449,0.4497,0.4505,0.4568,0,0,0.4528,0.4532,0,0,0,0,0,0,0,0,0.3942,0.3959,0.4125,0.4132,0.4139,0.4261,0.4222,0.4359,0.4318,0.4251,0.4316,0.4315,0.4417,0.4431,0.4464,0.4576,0.4584,0.4529,0.4534,0.4537,0.4539,0,0,0,0,0,0,0,0.3932,0.3952,0.4146,0.4127,0.4136,0.4153,0.4171,0.4248,0.4336,0.4257,0.4262,0.4281,0.4421,0.4456,0.4469,0.4586,0.4529,0.4536,0.4541,0.4544,0.4757,0.4758,0,0,0,0,0,0,0.3913,0.3944,0.4141,0.4151,0.4037,0.4158,0.4179,0.4223,0.4336,0.4352,0.4282,0.4284,0.4444,0.446,0.4475,0.4556,0.4537,0.4544,0.4549,0.4756,0.4757,0.4758,0,0,0,0,0,0,0.3907,0.393,0.4134,0.4049,0.4076,0.4164,0.4212,0.4227,0.4262,0.4354,0.437,0.4302,0.4444,0.4464,0.4544,0.4563,0.4548,0.4555,0.4755,0.4756,0.4758,0.4717,0,0,0,0,0,0,0.3899,0.3927,0.3952,0.4049,0.4081,0.4199,0.4213,0.423,0.4275,0.4279,0.4377,0.4393,0.4445,0.4532,0.4551,0.4573,0.4561,0.4753,0.4755,0.4757,0.4717,0.4717,0.4717,0,0,0,0,0,0.3889,0.3935,0.3953,0.3976,0.4113,0.42,0.4218,0.4275,0.4277,0.4302,0.4361,0.439,0.4557,0.4539,0.4562,0.4586,0.4752,0.4755,0.4757,0.4717,0.4717,0.4717,0,0,0,0,0,0,0.3839,0.3948,0.397,0.4048,0.4114,0.4211,0.4245,0.4274,0.4342,0.4343,0.4412,0.4434,0.4507,0.4555,0.4533,0.4652,0.4657,0.4664,0.4619,0.4619,0.4619,0.4606,0.4568,0,0,0,0,0,0.3836,0.3897,0.399,0.405,0.4081,0.4157,0.4197,0.4235,0.4307,0.4336,0.44,0.4469,0.4538,0.4581,0.4649,0.4724,0.4746,0.4752,0.4752,0.4751,0.4756,0.4799,0.4802,0.4766,0.4766,0.4766,0,0,0.3832,0.39,0.3934,0.4041,0.4097,0.4158,0.418,0.4245,0.4291,0.4346,0.4424,0.4474,0.4556,0.4632,0.467,0.4675,0.4771,0.4754,0.4753,0.4759,0.4801,0.4805,0.4808,0.4767,0.4767,0.4767,0,0,0.3857,0.3914,0.397,0.4024,0.4108,0.4158,0.4171,0.4263,0.4298,0.4377,0.4419,0.4475,0.4592,0.4648,0.4691,0.4735,0.4764,0.4755,0.4755,0.4795,0.4798,0.4801,0.4816,0.482,0.476,0.476,0.476,0,0.3842,0.3936,0.3995,0.4057,0.4102,0.4153,0.421,0.426,0.4362,0.4392,0.4396,0.4541,0.46,0.469,0.4701,0.4735,0.4752,0.4745,0.4792,0.4796,0.48,0.4815,0.482,0.4758,0.4758,0.4759,0.4759,0,0.3913,0.3977,0.4012,0.4107,0.4157,0.4216,0.4284,0.4327,0.4361,0.441,0.449,0.4562,0.4644,0.4668,0.4703,0.4763,0.4764,0.4779,0.4785,0.48,0.4816,0.4822,0.4756,0.4756,0.4757,0.4757,0,0,0.3911,0.4037,0.4049,0.4092,0.4187,0.4238,0.4299,0.4379,0.4414,0.4482,0.4535,0.4631,0.4645,0.4695,0.4736,0.4771,0.48,0.4782,0.4785,0.4782,0.487,0.4858,0.4864,0.4819,0.4821,0.4822,0.4863,0,0.3948,0.4058,0.4113,0.42,0.426,0.4308,0.4361,0.4425,0.4472,0.453,0.4583,0.465,0.4664,0.4694,0.4731,0.4788,0.4818,0.4786,0.487,0.4872,0.4848,0.4872,0.486,0.4896,0.487,0.4871,0.4872,0,0.4006,0.4072,0.4165,0.4251,0.4279,0.4325,0.4402,0.4457,0.453,0.4562,0.4616,0.4655,0.4721,0.4722,0.4814,0.479,0.4828,0.4861,0.4864,0.4874,0.4873,0.4883,0.4909,0.4914,0.4882,0.4881,0.488,0,0.3995,0.4107,0.4177,0.4212,0.4316,0.4347,0.4392,0.4464,0.4508,0.4575,0.4604,0.4678,0.4719,0.4776,0.4834,0.4829,0.492,0.4926,0.4949,0.4947,0.4966,0.4964,0.4998,0.499,0.499,0.499,0.499,0,0.403,0.4085,0.4173,0.4216,0.4278,0.434,0.44,0.4449,0.4512,0.4566,0.4612,0.4661,0.4735,0.4793,0.4839,0.4908,0.4926,0.4954,0.4966,0.495,0.4946,0.4976,0.4975,0.4991,0.4991,0.4991,0.499,0,0.4029,0.409,0.4169,0.4259,0.4283,0.4325,0.4403,0.4446,0.4495,0.4562,0.4581,0.4658,0.4729,0.4792,0.4887,0.4918,0.4988,0.5002,0.4962,0.4969,0.4988,0.4985,0.5042,0.5053,0.5037,0.5037,0.5037,0,0.4047,0.409,0.4185,0.4223,0.4266,0.4328,0.4372,0.4435,0.4479,0.4565,0.4598,0.4672,0.4734,0.4845,0.491,0.4982,0.4999,0.5014,0.501,0.4992,0.4999,0.4995,0.5,0.5013,0.5013,0.5013,0.5013,0,0.4074,0.4101,0.4163,0.4236,0.4287,0.4347,0.4409,0.4438,0.4511,0.4559,0.4631,0.4679,0.4775,0.4848,0.4926,0.4973,0.5005,0.5013,0.5022,0.5007,0.4982,0.4995,0.4961,0.5012,0.5012,0.5012,0.5012,0.5012,0.4083,0.4123,0.4195,0.4263,0.4315,0.4371,0.4416,0.4469,0.4531,0.4612,0.4645,0.4718,0.479,0.4899,0.4945,0.5004,0.501,0.5023,0.5027,0.5029,0.5026,0.4972,0.5019,0.5019,0.5019,0.5019,0.5019,0,0.4112,0.416,0.4221,0.4305,0.4358,0.4382,0.4451,0.4494,0.4557,0.4621,0.4681,0.4763,0.4833,0.4903,0.4977,0.501,0.5027,0.5028,0.5026,0.5036,0.5016,0.5001,0.5013,0.5013,0.5013,0.5013,0.5013,0.5013,0.4133,0.4201,0.4237,0.4332,0.4381,0.4452,0.4489,0.4541,0.4592,0.4681,0.4739,0.4784,0.485,0.4929,0.4994,0.5013,0.5038,0.5034,0.5057,0.5038,0.5037,0.5037,0.5023,0.5039,0.5039,0.5072,0.5072,0.5072]},{"header":{"parameterUnit":"m.s-1","parameterCategory":1,"la1":30.2991,"la2":30.254,"lo1":-89.0895,"lo2":-89.0444,"dy":0.0017,"dx":0.0017,"nx":28,"ny":28,"refTime":"2025-03-21T21:00:00:Z","depth":0,"parameterNumber":3,"parameterNumberName":"V-component_of_WINDS"},"data":[0,0,0,0,0,0,0,0,0,0,0,0,0,0,0,0,0,0,0,0,0,0,0,0,0,0,0,0,0,0,0,0,0,0,0,0,0,0,0,0,0,0,0,0,0,0,0,0,0,0,0,0,0,0,0,0,0,0,4.1023,4.1023,0,4.1003,4.1002,4.1002,4.1003,4.1003,4.1003,4.1004,4.0977,4.0977,4.0976,0,0,0,0,0,0,0,0,0,0,0,0,0,4.1059,4.1059,4.1023,4.1023,4.1023,4.1003,4.1002,4.1002,4.1003,4.1003,4.1003,4.1004,4.0978,4.0977,4.0975,0,0,0,0,0,0,0,0,0,0,0,0,0,4.1042,4.1059,4.1024,4.1021,4.1021,4.1003,4.1002,4.1002,4.1003,4.1003,4.1004,4.1004,4.0978,4.0977,4.0975,4.0957,0,0,4.0971,4.097,0,0,0,0,0,0,0,0,4.1043,4.104,4.1022,4.1021,4.1021,4.1006,4.1005,4.0987,4.1003,4.1009,4.1004,4.1004,4.0986,4.0984,4.0979,4.0956,4.0955,4.0971,4.097,4.0969,4.0969,0,0,0,0,0,0,0,4.1044,4.1041,4.1015,4.1021,4.1021,4.1019,4.1017,4.1002,4.0995,4.1009,4.1009,4.1007,4.0986,4.098,4.0978,4.0954,4.0971,4.0969,4.0968,4.0968,4.0914,4.0913,0,0,0,0,0,0,4.1046,4.1042,4.1016,4.1014,4.1033,4.1018,4.1016,4.101,4.0996,4.0994,4.1006,4.1007,4.0983,4.098,4.0977,4.0954,4.0969,4.0968,4.0967,4.0914,4.0913,4.0913,0,0,0,0,0,0,4.1047,4.1044,4.1017,4.1028,4.1025,4.1017,4.101,4.1009,4.1004,4.0994,4.0992,4.1002,4.0983,4.098,4.0962,4.0954,4.0967,4.0966,4.0915,4.0914,4.0913,4.0909,0,0,0,0,0,0,4.1048,4.1044,4.1038,4.1028,4.1024,4.1003,4.101,4.1009,4.1002,4.1002,4.0989,4.0987,4.0983,4.0964,4.0961,4.0952,4.0965,4.0915,4.0914,4.0913,4.0909,4.0908,4.0906,0,0,0,0,0,4.1049,4.1037,4.1038,4.1035,4.1017,4.1003,4.1,4.0997,4.1001,4.0994,4.0988,4.0988,4.0955,4.0963,4.0958,4.0949,4.0916,4.0915,4.0913,4.091,4.0908,4.0906,0,0,0,0,0,0,4.1045,4.1036,4.1037,4.1021,4.1013,4.1003,4.0994,4.0995,4.0984,4.0984,4.0979,4.0976,4.0958,4.0952,4.096,4.093,4.0936,4.0934,4.0935,4.0933,4.0931,4.0933,4.0963,0,0,0,0,0,4.1042,4.1033,4.1025,4.1012,4.1008,4.1002,4.0995,4.0994,4.0984,4.098,4.0972,4.0962,4.0949,4.094,4.0928,4.0909,4.0905,4.09,4.0898,4.0897,4.0895,4.0883,4.088,4.0909,4.0909,4.0909,0,0,4.1036,4.103,4.1024,4.1011,4.1004,4.0993,4.0999,4.0987,4.0978,4.0978,4.0961,4.0955,4.0943,4.0924,4.0915,4.0918,4.0886,4.0895,4.0894,4.0893,4.0881,4.0878,4.0876,4.0908,4.0908,4.0908,0,0,4.102,4.1015,4.1003,4.0997,4.0987,4.0983,4.098,4.097,4.0966,4.095,4.0949,4.0938,4.0917,4.0908,4.09,4.088,4.0879,4.0876,4.0867,4.0855,4.0853,4.0851,4.0843,4.084,4.0874,4.0874,4.0874,0,4.1013,4.0998,4.0997,4.0985,4.0978,4.0979,4.0966,4.0959,4.0945,4.094,4.0944,4.0917,4.0908,4.0887,4.0882,4.0876,4.0872,4.0877,4.0854,4.0852,4.085,4.0842,4.0839,4.0874,4.0874,4.0874,4.0874,0,4.099,4.0979,4.0971,4.0959,4.0951,4.0939,4.0934,4.0926,4.0925,4.092,4.0903,4.0893,4.0878,4.0873,4.0871,4.0851,4.0853,4.0855,4.0861,4.0847,4.0839,4.0836,4.0873,4.0873,4.0873,4.0873,0,0,4.097,4.0958,4.0954,4.0949,4.0938,4.0929,4.0916,4.0904,4.0896,4.0887,4.0874,4.0856,4.0858,4.085,4.0847,4.0837,4.082,4.084,4.0839,4.0836,4.0795,4.0793,4.079,4.082,4.0819,4.0818,4.0796,0,4.0952,4.0931,4.0929,4.0909,4.0898,4.0899,4.0887,4.0878,4.0873,4.0862,4.0856,4.0843,4.0847,4.0842,4.0832,4.0824,4.0811,4.0826,4.0806,4.0806,4.0809,4.0786,4.0784,4.0763,4.0793,4.0793,4.0792,0,4.0928,4.0919,4.0898,4.0889,4.0884,4.0874,4.0862,4.0852,4.0841,4.0838,4.0829,4.0827,4.0812,4.0819,4.0797,4.0806,4.0798,4.0793,4.0792,4.079,4.0798,4.0782,4.0757,4.0753,4.0788,4.0788,4.0788,0,4.0914,4.0897,4.0882,4.0877,4.0866,4.0859,4.0853,4.0844,4.0836,4.0824,4.0819,4.0806,4.0798,4.0786,4.078,4.0786,4.0758,4.0765,4.0753,4.0753,4.0747,4.0747,4.0719,4.0743,4.0743,4.0743,4.0743,0,4.0893,4.0881,4.0876,4.0867,4.0852,4.0849,4.0834,4.0829,4.082,4.0808,4.0807,4.0796,4.0789,4.0776,4.0771,4.0753,4.0749,4.0745,4.0744,4.0745,4.0745,4.0739,4.074,4.0742,4.0742,4.0743,4.0743,0,4.0875,4.0872,4.0856,4.0847,4.0844,4.0834,4.0825,4.0815,4.081,4.0796,4.0792,4.0784,4.0769,4.0762,4.0742,4.0739,4.0718,4.0718,4.0722,4.0721,4.071,4.071,4.0676,4.0671,4.0699,4.0698,4.0698,0,4.0862,4.0853,4.0843,4.0836,4.0831,4.082,4.0812,4.0808,4.08,4.0787,4.0778,4.0764,4.0752,4.0727,4.0718,4.0703,4.0702,4.0691,4.07,4.0701,4.0701,4.0701,4.0699,4.0689,4.0689,4.0689,4.0688,0,4.0839,4.0838,4.0828,4.0817,4.0808,4.0799,4.079,4.0784,4.0779,4.0769,4.0755,4.0745,4.0726,4.0711,4.0696,4.0688,4.0686,4.0686,4.0682,4.0683,4.0685,4.0683,4.0716,4.0687,4.0687,4.0687,4.0687,4.0687,4.0822,4.0814,4.0805,4.0794,4.0787,4.0779,4.0769,4.0763,4.0752,4.0737,4.0735,4.0719,4.0707,4.0687,4.0678,4.0664,4.0667,4.0662,4.066,4.0659,4.0658,4.0688,4.0662,4.0662,4.0662,4.0662,4.0662,0,4.0798,4.0793,4.0783,4.0771,4.0761,4.0763,4.0753,4.0744,4.0731,4.0721,4.071,4.0692,4.0677,4.0667,4.0652,4.0642,4.0641,4.0638,4.0638,4.0636,4.0657,4.0662,4.0639,4.0639,4.0639,4.0639,4.0639,4.0639,4.0785,4.077,4.0767,4.0748,4.0743,4.0729,4.0723,4.0714,4.0706,4.0687,4.0676,4.067,4.0659,4.0643,4.0628,4.0625,4.0619,4.0616,4.0613,4.0632,4.0635,4.0637,4.0641,4.0615,4.0615,4.0593,4.0593,4.0593]}]]